DW5656 Weather Reports


time (UTC)temp
F
wind
direction
speed
knots
gust
knots
rain 1hr
in
rain 24hr
in
rain mn
in
humidity
%
barometer
mb
20260831134720 96 173 2.6 5.2 0.00 0.00 0.00 32 1015.1
20260831133820 96 253 2.6 5.2 0.00 0.00 0.00 31 1015.3
20260831132920 95 334 2.6 6.1 0.00 0.00 0.00 31 1015.3
20260831132020 95 293 2.6 7.0 0.00 0.00 0.00 32 1015.5
20260831131120 95 279 1.7 6.1 0.00 0.00 0.00 34 1015.5
20260831130220 94 248 2.6 6.1 0.00 0.00 0.00 34 1015.5
20260831125320 94 289 1.7 6.1 0.00 0.00 0.00 35 1015.6
20260831124420 94 267 1.7 6.1 0.00 0.00 0.00 35 1015.6
20260831123520 93 298 2.6 6.1 0.00 0.00 0.00 36 1015.8
20260831122641 92 273 2.6 7.8 0.00 0.00 0.00 36 1015.9
20260831121720 93 291 2.6 6.1 0.00 0.00 0.00 37 1016.0
20260831120820 92 254 2.6 6.1 0.00 0.00 0.00 37 1016.1
20260831115920 93 248 2.6 6.1 0.00 0.00 0.00 37 1016.3
20260831115020 92 255 1.7 6.1 0.00 0.00 0.00 37 1016.4
20260831114141 92 342 1.7 3.5 0.00 0.00 0.00 38 1016.5
20260831113220 91 26 1.7 4.3 0.00 0.00 0.00 38 1016.5
20260831112320 91 84 2.6 7.0 0.00 0.00 0.00 38 1016.6
20260831111420 91 83 1.7 7.0 0.00 0.00 0.00 38 1016.6
20260831110520 90 167 1.7 5.2 0.00 0.00 0.00 39 1016.7
20260831105641 89 19 1.7 4.3 0.00 0.00 0.00 40 1016.7
20260831104720 89 86 1.7 5.2 0.00 0.00 0.00 40 1016.7
20260831103841 89 84 1.7 5.2 0.00 0.00 0.00 40 1016.9
20260831102920 88 90 1.7 6.1 0.00 0.00 0.00 41 1016.8
20260831102020 88 108 1.7 6.1 0.00 0.00 0.00 41 1017.0
20260831101120 88 104 1.7 6.1 0.00 0.00 0.00 41 1017.1
20260831100220 88 110 1.7 6.1 0.00 0.00 0.00 41 1017.1
20260831095320 87 99 1.7 6.1 0.00 0.00 0.00 42 1016.9
20260831094420 86 102 1.7 5.2 0.00 0.00 0.00 44 1016.8
20260831093520 86 84 1.7 2.6 0.00 0.00 0.00 44 1016.8
20260831092620 85 100 0.9 5.2 0.00 0.00 0.00 45 1016.9
20260831091720 84 95 0.9 3.5 0.00 0.00 0.00 45 1016.9
20260831090841 84 91 1.7 3.5 0.00 0.00 0.00 47 1017.0
20260831085942 82 61 2.6 3.5 0.00 0.00 0.00 48 1016.9
20260831085020 81 104 2.6 5.2 0.00 0.00 0.00 49 1016.9
20260831084120 81 104 2.6 5.2 0.00 0.00 0.00 49 1017.0
20260831083220 81 61 0.9 3.5 0.00 0.00 0.00 49 1017.1
20260831082319 81 42 0.9 2.6 0.00 0.00 0.00 51 1017.0
20260831081420 81 44 0.9 2.6 0.00 0.00 0.00 53 1017.1
20260831080519 80 67 1.7 3.5 0.00 0.00 0.00 54 1017.0
20260831075619 79 65 1.7 3.5 0.00 0.00 0.00 55 1017.1
20260831074719 78 57 1.7 4.3 0.00 0.00 0.00 55 1017.0
20260831073819 78 46 1.7 3.5 0.00 0.00 0.00 56 1016.9
20260831072919 78 26 0.9 3.5 0.00 0.00 0.00 57 1016.8
20260831072019 77 23 0.9 2.6 0.00 0.00 0.00 58 1016.8
20260831071119 76 28 1.7 3.5 0.00 0.00 0.00 60 1016.8
20260831070219 76 33 1.7 3.5 0.00 0.00 0.00 60 1016.8
20260831065319 75 33 2.6 4.3 0.00 0.00 0.00 62 1016.7
20260831064440 74 36 2.6 4.3 0.00 0.00 0.00 63 1016.5
20260831063519 74 35 2.6 4.3 0.00 0.00 0.00 64 1016.4
20260831062619 74 52 1.7 4.3 0.00 0.00 0.00 65 1016.3
20260831061740 74 23 1.7 3.5 0.00 0.00 0.00 66 1016.2
20260831060840 74 13 1.7 3.5 0.00 0.00 0.00 66 1016.2
20260831055919 75 2 1.7 3.5 0.00 0.00 0.00 67 1016.2
20260831055019 75 355 1.7 3.5 0.00 0.00 0.00 67 1016.1
20260831054119 75 359 2.6 3.5 0.00 0.00 0.00 67 1016.1
20260831053219 75 4 2.6 3.5 0.00 0.00 0.00 67 1015.9
20260831052319 75 10 2.6 3.5 0.00 0.00 0.00 67 1015.8
20260831051419 75 341 1.7 4.3 0.00 0.00 0.00 68 1015.9
20260831050519 75 351 1.7 3.5 0.00 0.00 0.00 68 1015.9
20260831045619 76 351 1.7 2.6 0.00 0.00 0.00 68 1016.0
20260831044719 76 351 1.7 3.5 0.00 0.00 0.00 67 1016.0
20260831043819 76 346 1.7 3.5 0.00 0.00 0.00 67 1015.9
20260831042919 76 313 1.7 3.5 0.00 0.00 0.00 68 1016.0
20260831042019 76 306 1.7 2.6 0.00 0.00 0.00 69 1016.0
20260831041119 76 306 1.7 2.6 0.00 0.00 0.00 69 1016.1
20260831040219 75 299 1.7 3.5 0.00 0.00 0.00 70 1016.1
20260831035319 75 242 0.9 2.6 0.00 0.00 0.00 71 1016.1
20260831034419 74 235 0.9 1.7 0.00 0.00 0.00 72 1016.1
20260831033519 74 232 0.9 1.7 0.00 0.00 0.00 73 1016.1
20260831032619 74 232 0.0 0.9 0.00 0.00 0.00 74 1016.2
20260831031719 74 232 0.0 0.9 0.00 0.00 0.00 74 1016.2
20260831030819 73 232 0.9 1.7 0.00 0.00 0.00 73 1016.2
20260831025919 74 232 0.9 1.7 0.00 0.00 0.00 73 1016.3
20260831025019 74 232 0.9 2.6 0.00 0.00 0.00 73 1016.4
20260831024140 74 231 0.9 2.6 0.00 0.00 0.00 73 1016.4
20260831023240 74 229 0.9 2.6 0.00 0.00 0.00 72 1016.4
20260831022319 74 229 0.9 3.5 0.00 0.00 0.00 72 1016.4
20260831021440 74 229 0.9 2.6 0.00 0.00 0.00 72 1016.3
20260831020518 74 229 0.9 2.6 0.00 0.00 0.00 71 1016.3
20260831015619 74 229 0.9 2.6 0.00 0.00 0.00 71 1016.3
20260831014718 74 229 0.9 1.7 0.00 0.00 0.00 71 1016.3
20260831013818 75 229 0.9 1.7 0.00 0.00 0.00 70 1016.3
20260831012918 75 229 1.7 3.5 0.00 0.00 0.00 70 1016.3
20260831012018 75 232 0.9 3.5 0.00 0.00 0.00 69 1016.3
20260831011118 75 232 0.9 3.5 0.00 0.00 0.00 69 1016.3
20260831010218 75 232 1.7 2.6 0.00 0.00 0.00 68 1016.3
20260831005318 75 227 1.7 4.3 0.00 0.00 0.00 67 1016.2
20260831004418 76 213 0.9 3.5 0.00 0.00 0.00 66 1016.3
20260831003518 76 213 0.9 2.6 0.00 0.00 0.00 64 1016.2
20260831002639 76 202 0.9 2.6 0.00 0.00 0.00 64 1016.3
20260831001718 76 191 1.7 3.5 0.00 0.00 0.00 63 1016.2
20260831000839 77 197 1.7 3.5 0.00 0.00 0.00 62 1016.1
20260830235918 77 181 1.7 3.5 0.00 0.00 0.00 61 1016.1
20260830235018 77 178 1.7 3.5 0.00 0.00 0.00 59 1016.1
20260830234139 78 209 1.7 3.5 0.00 0.00 0.00 59 1016.1
20260830233218 78 209 0.9 2.6 0.00 0.00 0.00 58 1016.1
20260830232318 78 209 0.0 1.7 0.00 0.00 0.00 58 1015.9
20260830231418 78 209 0.9 1.7 0.00 0.00 0.00 58 1015.8
20260830230518 78 209 0.9 1.7 0.00 0.00 0.00 57 1015.8
20260830225618 79 209 0.9 1.7 0.00 0.00 0.00 57 1015.8
20260830224718 79 209 1.7 2.6 0.00 0.00 0.00 57 1015.7
20260830223818 79 209 1.7 2.6 0.00 0.00 0.00 56 1015.7
20260830222918 80 209 1.7 2.6 0.00 0.00 0.00 56 1015.6
20260830222018 80 209 1.7 3.5 0.00 0.00 0.00 55 1015.6
20260830221118 80 212 1.7 3.5 0.00 0.00 0.00 54 1015.6
20260830220218 81 215 1.7 5.2 0.00 0.00 0.00 54 1015.5
20260830215318 81 237 2.6 6.1 0.00 0.00 0.00 53 1015.5
20260830214418 82 230 2.6 6.1 0.00 0.00 0.00 51 1015.3
20260830213539 82 219 1.7 4.3 0.00 0.00 0.00 50 1015.4
20260830212618 83 224 3.5 7.0 0.00 0.00 0.00 50 1015.3
20260830211718 83 249 3.5 7.0 0.00 0.00 0.00 49 1015.3
20260830210818 83 265 3.5 9.6 0.00 0.00 0.00 49 1015.2
20260830205918 83 255 2.6 10.4 0.00 0.00 0.00 49 1015.2
20260830205018 83 222 1.7 4.3 0.00 0.00 0.00 49 1015.3
20260830204118 84 226 2.6 4.3 0.00 0.00 0.00 49 1015.3
20260830203239 84 219 3.5 6.1 0.00 0.00 0.00 49 1015.3
20260830202318 85 217 2.6 6.1 0.00 0.00 0.00 49 1015.3
20260830201417 85 225 2.6 6.1 0.00 0.00 0.00 48 1015.2
20260830200517 86 239 2.6 8.7 0.00 0.00 0.00 47 1014.9
20260830195617 86 236 3.5 7.0 0.00 0.00 0.00 46 1014.9
20260830194717 86 240 4.3 7.8 0.00 0.00 0.00 45 1014.8
20260830193817 87 238 3.5 9.6 0.00 0.00 0.00 44 1014.7
20260830192917 88 229 3.5 7.8 0.00 0.00 0.00 43 1014.6
20260830192018 88 231 2.6 7.8 0.00 0.00 0.00 41 1014.6
20260830191138 89 238 4.3 7.8 0.00 0.00 0.00 40 1014.4
20260830190217 90 230 4.3 8.7 0.00 0.00 0.00 39 1014.3
20260830185317 91 231 3.5 7.8 0.00 0.00 0.00 38 1014.3
20260830184417 91 234 3.5 7.8 0.00 0.00 0.00 37 1014.2
20260830183517 92 240 4.3 8.7 0.00 0.00 0.00 36 1014.3
20260830182617 92 230 5.2 8.7 0.00 0.00 0.00 36 1014.3
20260830181717 92 226 5.2 9.6 0.00 0.00 0.00 36 1014.3
20260830180817 93 232 4.3 9.6 0.00 0.00 0.00 36 1014.2
20260830175917 93 237 5.2 9.6 0.00 0.00 0.00 37 1014.2
20260830175017 93 228 4.3 11.3 0.00 0.00 0.00 37 1014.3
20260830174118 93 222 4.3 9.6 0.00 0.00 0.00 39 1014.3
20260830173238 93 220 4.3 10.4 0.00 0.00 0.00 38 1014.3
20260830172317 94 218 5.2 10.4 0.00 0.00 0.00 37 1014.3
20260830171417 94 229 4.3 10.4 0.00 0.00 0.00 35 1014.3
20260830170539 95 225 4.3 7.8 0.00 0.00 0.00 33 1014.3
20260830165617 95 223 4.3 10.4 0.00 0.00 0.00 32 1014.4
20260830164718 95 221 4.3 10.4 0.00 0.00 0.00 30 1014.4
20260830163817 95 222 5.2 11.3 0.00 0.00 0.00 31 1014.4
20260830162917 94 233 7.0 10.4 0.00 0.00 0.00 31 1014.5
20260830162017 94 242 6.1 14.8 0.00 0.00 0.00 31 1014.5
20260830161117 96 227 4.3 10.4 0.00 0.00 0.00 31 1014.5
20260830160217 96 216 3.5 10.4 0.00 0.00 0.00 31 1014.4
20260830155317 96 210 3.5 8.7 0.00 0.00 0.00 31 1014.4
20260830154417 96 227 3.5 7.8 0.00 0.00 0.00 31 1014.4
20260830153538 96 214 2.6 7.8 0.00 0.00 0.00 32 1014.5
20260830152617 96 174 2.6 8.7 0.00 0.00 0.00 32 1014.6
20260830151717 96 181 2.6 7.8 0.00 0.00 0.00 30 1014.6
20260830150817 95 228 3.5 10.4 0.00 0.00 0.00 31 1014.6
20260830145917 95 178 2.6 10.4 0.00 0.00 0.00 31 1014.7
20260830145017 95 191 2.6 8.7 0.00 0.00 0.00 31 1014.9
20260830144117 94 179 3.5 7.8 0.00 0.00 0.00 32 1015.0
20260830143217 94 179 3.5 8.7 0.00 0.00 0.00 32 1015.2
20260830142317 95 165 2.6 6.1 0.00 0.00 0.00 33 1015.2
20260830141416 95 250 2.6 6.1 0.00 0.00 0.00 34 1015.3
20260830140516 94 245 2.6 7.0 0.00 0.00 0.00 33 1015.5
20260830135616 94 252 2.6 6.1 0.00 0.00 0.00 34 1015.6